Weather History for Watsonville, CA

Change the Weather History Date:

Thursday, October 3, 2013

  Actual Average Record
Temperature  
Mean Temperature 61 °F 62 °F  
Max Temperature 77 °F 74 °F 100 °F (2014)
Min Temperature 45 °F 50 °F 42 °F (2002)
Degree Days  
Heating Degree Days 4    
Month to date heating degree days 14  
Since 1 July heating degree days 195  
Cooling Degree Days 0    
Month to date cooling degree days 0  
Year to date cooling degree days 115  
Growing Degree Days 11 (Base 50)    
Moisture  
Dew Point 39 °F    
Average Humidity 54    
Maximum Humidity 92    
Minimum Humidity 15    
Precipitation  
Precipitation 0.00 in - 0.47 in (2011)
Month to date precipitation 0.00  
Year to date precipitation 2.54  
Since 1 July precipitation 0.15  
Sea Level Pressure  
Sea Level Pressure 30.00 in    
Wind  
Wind Speed 5 mph (NW)    
Max Wind Speed 15 mph    
Max Gust Speed 21 mph    
Visibility 10 miles    
Events      
T = Trace of Precipitation, MM = Missing Value Source: NWS Daily Summary

Daily Weather History Graph

Daily Weather History Graph

Search for Another Location

Airport:

Trip Planner

Search our weather history database for the weather conditions in past years. The results will help you decide how hot, cold, wet, or windy it might be!

Date:

Astronomy

Oct. 03, 2013 Rise Set
Actual Time 7:04 AM PDT 6:47 PM PDT
Civil Twilight 6:38 AM PDT 7:12 PM PDT
Nautical Twilight 6:08 AM PDT 7:42 PM PDT
Astronomical Twilight 5:38 AM PDT 8:13 PM PDT
Moon 5:44 AM PDT (10/3) 5:58 PM PDT (10/3)
Length of Visible Light 12h 34m
Length of Day
11h 42m
Waning Crescent, 2% of the Moon is Illuminated
Oct 3
Waning Crescent
Oct 4
New
Oct 11
First Quarter
Oct 18
Full
Oct 26
Last Quarter

Hourly Weather History & Observations

Time (PDT) Temp. Windchill Dew Point Humidity Pressure Visibility Wind Dir Wind Speed Gust Speed Precip Events Conditions
12:53 AM 48.9 °F - 44.1 °F 83% 30.02 in 10.0 mi NNW 4.6 mph - N/A   Clear
1:53 AM 48.0 °F - 44.1 °F 86% 30.03 in 10.0 mi NW 3.5 mph - N/A   Clear
2:53 AM 46.9 °F - 43.0 °F 86% 30.02 in 10.0 mi WNW 5.8 mph - N/A   Clear
3:07 AM 48.2 °F - 44.6 °F 87% 30.02 in 10.0 mi NW 3.5 mph - N/A   Partly Cloudy
3:53 AM 46.9 °F - 43.0 °F 86% 30.01 in 10.0 mi NNW 4.6 mph - N/A   Clear
4:53 AM 46.9 °F - 43.0 °F 86% 30.03 in 10.0 mi NW 4.6 mph - N/A   Clear
5:53 AM 46.0 °F 43.9 °F 43.0 °F 89% 30.03 in 10.0 mi NNW 4.6 mph - N/A   Clear
6:53 AM 45.0 °F 42.6 °F 42.1 °F 90% 30.04 in 10.0 mi NNW 4.6 mph - N/A   Clear
7:53 AM 48.0 °F - 44.1 °F 86% 30.05 in 10.0 mi Calm Calm - N/A   Clear
8:53 AM 53.1 °F - 45.0 °F 74% 30.06 in 10.0 mi Calm Calm - N/A   Clear
9:53 AM 59.0 °F - 46.0 °F 62% 30.06 in 10.0 mi SE 4.6 mph - N/A   Clear
10:53 AM 64.9 °F - 44.1 °F 47% 30.05 in 10.0 mi Variable 5.8 mph - N/A   Clear
11:53 AM 66.9 °F - 43.0 °F 42% 30.03 in 10.0 mi SSW 9.2 mph - N/A   Clear
12:53 PM 70.0 °F - 39.9 °F 33% 30.01 in 10.0 mi SSW 8.1 mph - N/A   Clear
1:53 PM 72.0 °F - 36.0 °F 27% 29.97 in 10.0 mi SSW 11.5 mph - N/A   Clear
2:53 PM 77.0 °F - 26.1 °F 15% 29.95 in 10.0 mi NNW 8.1 mph - N/A   Clear
3:53 PM 75.9 °F - 27.0 °F 16% 29.94 in 10.0 mi North 8.1 mph 16.1 mph N/A   Clear
4:53 PM 75.0 °F - 26.1 °F 16% 29.94 in 10.0 mi NNW 9.2 mph - N/A   Clear
5:53 PM 73.0 °F - 26.1 °F 17% 29.94 in 10.0 mi NW 8.1 mph 17.3 mph N/A   Clear
6:53 PM 69.1 °F - 28.0 °F 22% 29.95 in 10.0 mi NW 4.6 mph - N/A   Clear
7:53 PM 61.0 °F - 28.0 °F 29% 29.96 in 10.0 mi Calm Calm - N/A   Clear
9:53 PM 55.0 °F - 43.0 °F 64% 29.95 in 10.0 mi West 3.5 mph - N/A   Clear
10:53 PM 52.0 °F - 44.1 °F 74% 29.96 in 10.0 mi Calm Calm - N/A   Clear
11:53 PM 51.1 °F - 42.1 °F 71% 29.96 in 10.0 mi NW 3.5 mph - N/A   Clear